User: anonymous   Login
Location: Newark
(52.8662°N, 8.1982°W)
Time: 22:15:20
(UTC+00:00)
Language:

SPROUT - Orbit

View from above orbital plane
View from above orbital plane
View from above satellite
View from above satellite

Ground track
Ground track

The orbit data is extracted from the following two-line orbital elements,

1 39770U 14029E   20028.50666917  .00000336  00000-0  43026-4 0  9995
2 39770  97.8917 135.4946 0010004  72.7248 287.5056 14.87588422308100
Epoch (UTC): 28 January 2020 12:09:36
Eccentricity: 0.0010004
inclination: 97.8917°
perigee height: 598 km
apogee height: 612 km
right ascension of ascending node: 135.4946°
argument of perigee: 72.7248°
revolutions per day: 14.87588422
mean anomaly at epoch: 287.5056°
orbit number at epoch: 30810

The dashed part of the orbit path shows where the satellite is in the earth's shadow,  

DLR